Jackson, MI

11:05 AM EDT on August 23, 2017 (GMT -0400)
Jackson County-Reynolds

Weather History for KJXN - March, 2013

Change the Weather History Date:

Thursday, March 28, 2013

  Actual Average Record
Temperature  
Mean Temperature 40 °F 40 °F  
Max Temperature 52 °F 51 °F 76 °F (1968)
Min Temperature 28 °F 30 °F 11 °F (2015)
Degree Days  
Heating Degree Days 25 25  
Month to date heating degree days 934 839  
Since 1 July heating degree days 5632 5753  
Cooling Degree Days 0 0  
Month to date cooling degree days 0 0  
Year to date cooling degree days 0 0  
Moisture  
Dew Point 22 °F    
Average Humidity 53    
Maximum Humidity 75    
Minimum Humidity 30    
Precipitation  
Precipitation 0.00 in 0.07 in 0.88 in (1977)
Month to date precipitation 0.61 1.68  
Year to date precipitation 4.96 4.46  
Sea Level Pressure  
Sea Level Pressure 30.27 in    
Wind  
Wind Speed 7 mph (WNW)    
Max Wind Speed 15 mph    
Max Gust Speed 28 mph    
Visibility 10 miles    
Events      
T = Trace of Precipitation, MM = Missing Value Source: NWS Daily Summary

Daily Weather History Graph

Daily Weather History Graph

Search for Another Location

Airport or City:

Trip Planner

Search our weather history database for the weather conditions in past years. The results will help you decide how hot, cold, wet, or windy it might be!

Date:

Astronomy

Mar. 28, 2013 Rise Set
Actual Time 7:26 AM EDT 7:59 PM EDT
Civil Twilight 6:58 AM EDT 8:27 PM EDT
Nautical Twilight 6:25 AM EDT 9:00 PM EDT
Astronomical Twilight 5:51 AM EDT 9:35 PM EDT
Moon 9:53 PM EDT (3/28) 7:52 AM EDT (3/28)
Length of Visible Light 13h 28m
Length of Day
12h 32m
Full, 98% of the Moon is Illuminated
Mar 28
Full
Apr 3
Last Quarter
Apr 10
New
Apr 18
First Quarter
Apr 25
Full

Hourly Weather History & Observations

Time (EDT) Temp. Windchill Dew Point Humidity Pressure Visibility Wind Dir Wind Speed Gust Speed Precip Events Conditions
12:56 AM 30.9 °F 25.2 °F 19.9 °F 64% 30.25 in 10.0 mi West 5.8 mph - N/A   Clear
1:56 AM 30.0 °F 24.1 °F 19.9 °F 66% 30.25 in 10.0 mi WNW 5.8 mph - N/A   Clear
2:56 AM 30.0 °F 23.2 °F 19.9 °F 66% 30.25 in 10.0 mi West 6.9 mph - N/A   Clear
3:56 AM 30.0 °F 23.2 °F 19.9 °F 66% 30.25 in 10.0 mi West 6.9 mph - N/A   Clear
4:56 AM 30.9 °F 21.7 °F 19.9 °F 64% 30.25 in 10.0 mi WNW 11.5 mph - N/A   Clear
5:56 AM 30.0 °F 22.4 °F 21.0 °F 69% 30.25 in 10.0 mi WNW 8.1 mph - N/A   Clear
6:56 AM 28.9 °F 22.8 °F 21.0 °F 72% 30.26 in 10.0 mi WNW 5.8 mph - N/A   Clear
7:56 AM 28.9 °F 21.9 °F 21.9 °F 75% 30.27 in 10.0 mi West 6.9 mph - N/A   Clear
8:56 AM 33.1 °F 25.5 °F 24.1 °F 70% 30.28 in 10.0 mi NW 9.2 mph - N/A   Clear
9:56 AM 37.9 °F 31.5 °F 25.0 °F 60% 30.29 in 10.0 mi WNW 9.2 mph - N/A   Clear
10:56 AM 42.1 °F 37.1 °F 24.1 °F 49% 30.29 in 10.0 mi NW 8.1 mph 16.1 mph N/A   Clear
11:56 AM 45.0 °F 39.7 °F 23.0 °F 42% 30.29 in 10.0 mi NNW 10.4 mph 20.7 mph N/A   Clear
12:56 PM 46.9 °F - 21.9 °F 37% 30.28 in 10.0 mi NW 11.5 mph 18.4 mph N/A   Clear
1:56 PM 48.9 °F - 21.9 °F 35% 30.27 in 10.0 mi NNW 10.4 mph 20.7 mph N/A   Clear
2:56 PM 52.0 °F - 23.0 °F 32% 30.26 in 10.0 mi NW 11.5 mph 19.6 mph N/A   Clear
3:56 PM 51.1 °F - 21.9 °F 32% 30.25 in 10.0 mi WNW 10.4 mph 27.6 mph N/A   Partly Cloudy
4:56 PM 48.0 °F - 21.0 °F 34% 30.24 in 10.0 mi NNW 4.6 mph - N/A   Partly Cloudy
5:56 PM 48.0 °F - 21.0 °F 34% 30.24 in 10.0 mi WNW 8.1 mph - N/A   Scattered Clouds
6:56 PM 46.9 °F - 21.0 °F 36% 30.25 in 10.0 mi West 8.1 mph - N/A   Mostly Cloudy
7:56 PM 42.1 °F - 19.9 °F 41% 30.26 in 10.0 mi Calm Calm - N/A   Clear
8:56 PM 39.0 °F 34.8 °F 21.9 °F 50% 30.27 in 10.0 mi NW 5.8 mph - N/A   Clear
9:56 PM 37.0 °F 32.4 °F 21.9 °F 54% 30.29 in 10.0 mi WNW 5.8 mph - N/A   Clear
10:56 PM 35.1 °F 29.3 °F 21.0 °F 57% 30.30 in 10.0 mi WNW 6.9 mph - N/A   Clear
11:56 PM 35.1 °F - 21.0 °F 57% 30.30 in 10.0 mi Calm Calm - N/A   Clear